Powrót do katalogu

STARLINK-31526

AktywnyŁącznośćVLEO
NORAD 59016·PAYLOAD·🇺🇸 United States

Wystrzelony Feb 23, 2024 z Vandenberg Space Force Base

Loading…

Następne Przeloty (najbliższe 24 godziny)

TLE

ŚwieżeSource: CelesTrak SupGP

Epoka: Sep 14, 2026, 22:21 UTC

1 59016C 24036U   26257.93173611  .00046648  00000+0  15002-2 0  2573
2 59016  53.1578 252.3334 0001255  88.6323 266.3811 15.31675481    16

Śledź STARLINK-31526 w czasie rzeczywistym z AllMySat

Download on the App Store